RXI6679 OEJN-OERK

Flight info

Callsign RXI6679
Flight time 1h 8m
Altitude 39000
Route EGREP T532 ORDEM
Aircraft B789/H-SDE1E2E3FGHIJ2J3J4J5M1RWXY/LB1D1

Departure

Time 2026-04-30 11:47
Airport King Abdulaziz International Airport (OEJN)

Arrival

Time 2026-04-30 12:56
Airport King Khalid International Airport (OERK)
Time Latitude Longitude Altitude Speed Heading
2026-04-30 11:12 21.67009 39.17172 48 ft 0 kts 274°
2026-04-30 11:36 21.67007 39.17193 46 ft 4 kts 275°
2026-04-30 11:36 21.67005 39.17222 47 ft 4 kts 275°
2026-04-30 11:36 21.67003 39.17251 47 ft 4 kts 273°
2026-04-30 11:36 21.67003 39.17269 47 ft 3 kts 266°
2026-04-30 11:37 21.67006 39.17284 48 ft 2 kts 236°
2026-04-30 11:37 21.67017 39.17294 48 ft 2 kts 201°
2026-04-30 11:37 21.67020 39.17296 48 ft 0 kts 199°
2026-04-30 11:41 21.67012 39.17293 51 ft 3 kts 195°
2026-04-30 11:41 21.66976 39.17286 51 ft 8 kts 188°
2026-04-30 11:41 21.66924 39.17284 52 ft 9 kts 174°
2026-04-30 11:41 21.66884 39.17321 54 ft 7 kts 101°
2026-04-30 11:42 21.66891 39.17376 54 ft 9 kts 72°
2026-04-30 11:42 21.66917 39.17448 51 ft 12 kts 68°
2026-04-30 11:42 21.66952 39.17543 55 ft 15 kts 68°
2026-04-30 11:42 21.66977 39.17646 58 ft 13 kts 101°
2026-04-30 11:43 21.66910 39.17710 54 ft 15 kts 157°
2026-04-30 11:43 21.66804 39.17754 55 ft 18 kts 160°
2026-04-30 11:43 21.66678 39.17804 55 ft 16 kts 158°
2026-04-30 11:43 21.66620 39.17884 59 ft 9 kts 86°
2026-04-30 11:44 21.66624 39.17900 58 ft 0 kts 75°
2026-04-30 11:45 21.66626 39.17912 55 ft 4 kts 75°
2026-04-30 11:46 21.66643 39.17967 55 ft 11 kts 68°
2026-04-30 11:46 21.66710 39.18021 64 ft 12 kts 355°
2026-04-30 11:46 21.66825 39.17978 61 ft 32 kts 340°
2026-04-30 11:46 21.67314 39.17781 53 ft 119 kts 340°
2026-04-30 11:47 21.68349 39.17407 183 ft 184 kts 340°
2026-04-30 11:47 21.69615 39.16999 1043 ft 191 kts 340°
2026-04-30 11:47 21.70942 39.16578 1536 ft 213 kts 345°
2026-04-30 11:47 21.72385 39.16261 2689 ft 204 kts 352°
2026-04-30 11:48 21.73792 39.16458 3781 ft 218 kts 18°
2026-04-30 11:48 21.75184 39.17346 4456 ft 248 kts 32°
2026-04-30 11:48 21.76694 39.18437 5185 ft 274 kts 31°
2026-04-30 11:48 21.78338 39.19600 5867 ft 291 kts 31°
2026-04-30 11:49 21.80055 39.20801 5956 ft 293 kts 31°
2026-04-30 11:49 21.81748 39.21991 5968 ft 289 kts 30°
2026-04-30 11:49 21.83431 39.23173 5963 ft 289 kts 31°
2026-04-30 11:49 21.85110 39.24355 5962 ft 288 kts 31°
2026-04-30 11:50 21.86785 39.25533 5962 ft 287 kts 30°
2026-04-30 11:50 21.88461 39.26711 5970 ft 288 kts 31°
2026-04-30 11:50 21.90131 39.27885 6280 ft 292 kts 31°
2026-04-30 11:50 21.91886 39.29119 7086 ft 314 kts 31°
2026-04-30 11:51 21.93796 39.30452 7668 ft 340 kts 29°
2026-04-30 11:51 21.95911 39.31760 8416 ft 356 kts 30°
2026-04-30 11:51 21.97988 39.33223 9568 ft 360 kts 31°
2026-04-30 11:51 22.00142 39.34704 10263 ft 377 kts 30°
2026-04-30 11:52 22.02384 39.36227 11117 ft 384 kts 36°
2026-04-30 11:52 22.04364 39.38196 11987 ft 392 kts 44°
2026-04-30 11:52 22.06241 39.40374 12836 ft 400 kts 46°
2026-04-30 11:52 22.08162 39.42574 13728 ft 406 kts 43°
2026-04-30 11:53 22.10187 39.44676 14504 ft 412 kts 41°
2026-04-30 11:53 22.12272 39.46817 15374 ft 416 kts 42°
2026-04-30 11:53 22.14336 39.49034 16212 ft 422 kts 43°
2026-04-30 11:53 22.16415 39.51297 17012 ft 427 kts 43°
2026-04-30 11:54 22.18535 39.53561 17826 ft 432 kts 42°
2026-04-30 11:54 22.20694 39.55845 18534 ft 438 kts 42°
2026-04-30 11:54 22.22868 39.58167 19245 ft 441 kts 43°
2026-04-30 11:54 22.25060 39.60522 19853 ft 449 kts 43°
2026-04-30 11:55 22.27266 39.62884 20297 ft 451 kts 43°
2026-04-30 11:55 22.29496 39.65268 21056 ft 454 kts 43°
2026-04-30 11:55 22.31752 39.67682 21676 ft 459 kts 43°
2026-04-30 11:55 22.34026 39.70120 22328 ft 463 kts 43°
2026-04-30 11:56 22.36326 39.72586 22974 ft 468 kts 43°
2026-04-30 11:56 22.38645 39.75074 23550 ft 472 kts 43°
2026-04-30 11:56 22.40965 39.77565 24358 ft 467 kts 42°
2026-04-30 11:56 22.43316 39.80085 24470 ft 482 kts 43°
2026-04-30 11:57 22.45696 39.82643 25012 ft 484 kts 42°
2026-04-30 11:57 22.48185 39.85104 25377 ft 487 kts 38°
2026-04-30 11:57 22.50709 39.87501 25739 ft 493 kts 38°
2026-04-30 11:57 22.53273 39.89972 26250 ft 495 kts 38°
2026-04-30 11:58 22.55860 39.92449 26678 ft 498 kts 38°
2026-04-30 11:58 22.58476 39.94934 27102 ft 502 kts 38°
2026-04-30 11:58 22.61104 39.97438 27529 ft 505 kts 38°
2026-04-30 11:58 22.63749 39.99974 27917 ft 509 kts 37°
2026-04-30 11:59 22.66408 40.02522 28326 ft 513 kts 37°
2026-04-30 11:59 22.69089 40.05085 28685 ft 516 kts 37°
2026-04-30 11:59 22.71790 40.07668 29049 ft 520 kts 37°
2026-04-30 11:59 22.74469 40.10235 29387 ft 523 kts 37°
2026-04-30 12:00 22.77205 40.12860 29724 ft 527 kts 37°
2026-04-30 12:00 22.79954 40.15497 30057 ft 529 kts 37°
2026-04-30 12:00 22.82717 40.18148 30334 ft 532 kts 37°
2026-04-30 12:00 22.85501 40.20820 30583 ft 536 kts 37°
2026-04-30 12:01 22.88297 40.23508 30812 ft 539 kts 37°
2026-04-30 12:01 22.91110 40.26212 31035 ft 542 kts 37°
2026-04-30 12:01 22.93939 40.28933 31260 ft 545 kts 37°
2026-04-30 12:01 22.96780 40.31667 31414 ft 549 kts 37°
2026-04-30 12:02 22.99569 40.34358 32022 ft 541 kts 37°
2026-04-30 12:02 23.02408 40.37091 31983 ft 550 kts 37°
2026-04-30 12:02 23.08205 40.42675 31974 ft 563 kts 37°
2026-04-30 12:03 23.17111 40.51281 31989 ft 579 kts 37°
2026-04-30 12:04 23.23118 40.57096 32199 ft 582 kts 38°
2026-04-30 12:04 23.25926 40.60282 32395 ft 588 kts 48°
2026-04-30 12:04 23.28254 40.63963 32561 ft 592 kts 56°
2026-04-30 12:05 23.31905 40.72023 32778 ft 598 kts 69°
2026-04-30 12:05 23.33217 40.76321 32933 ft 599 kts 72°
2026-04-30 12:05 23.34417 40.80662 33086 ft 600 kts 72°
2026-04-30 12:05 23.35693 40.84924 33244 ft 600 kts 68°
2026-04-30 12:06 23.37230 40.89136 33406 ft 599 kts 65°
2026-04-30 12:06 23.38857 40.93320 33563 ft 600 kts 66°
2026-04-30 12:06 23.40331 40.97576 33727 ft 601 kts 69°
2026-04-30 12:07 23.43171 41.06192 33776 ft 607 kts 67°
2026-04-30 12:07 23.44722 41.10470 33903 ft 607 kts 67°
2026-04-30 12:07 23.46230 41.14774 33961 ft 608 kts 68°
2026-04-30 12:07 23.47660 41.19073 34394 ft 601 kts 69°
2026-04-30 12:08 23.49085 41.23283 34625 ft 600 kts 68°
2026-04-30 12:08 23.50573 41.27528 34828 ft 599 kts 68°
2026-04-30 12:08 23.52046 41.31759 35036 ft 598 kts 68°
2026-04-30 12:08 23.53485 41.36003 35252 ft 597 kts 69°
2026-04-30 12:09 23.54921 41.40242 35466 ft 596 kts 68°
2026-04-30 12:09 23.56373 41.44464 35665 ft 595 kts 68°
2026-04-30 12:09 23.57828 41.48684 35903 ft 594 kts 68°
2026-04-30 12:09 23.59263 41.52895 36122 ft 592 kts 69°
2026-04-30 12:10 23.60671 41.57046 36343 ft 591 kts 69°
2026-04-30 12:10 23.62102 41.61243 36566 ft 590 kts 68°
2026-04-30 12:10 23.63532 41.65428 36776 ft 589 kts 69°
2026-04-30 12:10 23.64957 41.69617 37000 ft 588 kts 69°
2026-04-30 12:11 23.66374 41.73799 37230 ft 587 kts 69°
2026-04-30 12:11 23.67732 41.78003 37424 ft 586 kts 71°
2026-04-30 12:11 23.69064 41.82207 37611 ft 586 kts 69°
2026-04-30 12:11 23.70445 41.86386 37816 ft 585 kts 69°
2026-04-30 12:12 23.71773 41.90515 38035 ft 585 kts 70°
2026-04-30 12:12 23.73079 41.94715 38257 ft 584 kts 70°
2026-04-30 12:12 23.74399 41.98900 38462 ft 583 kts 69°
2026-04-30 12:12 23.75860 42.03020 38619 ft 582 kts 68°
2026-04-30 12:13 23.77264 42.07159 38785 ft 582 kts 69°
2026-04-30 12:13 23.78638 42.11310 38964 ft 581 kts 69°
2026-04-30 12:13 23.80052 42.15453 38965 ft 584 kts 68°
2026-04-30 12:14 23.82892 42.23679 38966 ft 581 kts 69°
2026-04-30 12:14 23.85683 42.31958 38965 ft 581 kts 69°
2026-04-30 12:15 23.88507 42.40224 38965 ft 581 kts 69°
2026-04-30 12:15 23.91302 42.48506 38964 ft 581 kts 69°
2026-04-30 12:16 23.94092 42.56735 38964 ft 582 kts 69°
2026-04-30 12:16 23.96887 42.65031 38968 ft 581 kts 69°
2026-04-30 12:17 24.01076 42.77468 38961 ft 581 kts 69°
2026-04-30 12:17 24.03864 42.85774 38966 ft 581 kts 69°
2026-04-30 12:18 24.06616 42.94031 38966 ft 582 kts 70°
2026-04-30 12:18 24.09343 43.02372 38967 ft 582 kts 70°
2026-04-30 12:19 24.12096 43.10711 38970 ft 582 kts 70°
2026-04-30 12:19 24.14826 43.19061 38973 ft 583 kts 70°
2026-04-30 12:20 24.17544 43.27351 38971 ft 582 kts 70°
2026-04-30 12:20 24.20269 43.35704 38967 ft 582 kts 70°
2026-04-30 12:21 24.22996 43.44066 38960 ft 583 kts 70°
2026-04-30 12:21 24.25715 43.52430 38963 ft 583 kts 70°
2026-04-30 12:22 24.28434 43.60807 38964 ft 584 kts 70°
2026-04-30 12:22 24.31131 43.69135 38959 ft 584 kts 70°
2026-04-30 12:23 24.33844 43.77531 38954 ft 584 kts 70°
2026-04-30 12:23 24.36552 43.85930 38947 ft 584 kts 70°
2026-04-30 12:24 24.39255 43.94330 38949 ft 584 kts 70°
2026-04-30 12:24 24.41935 44.02678 38947 ft 584 kts 70°
2026-04-30 12:25 24.44610 44.11087 38948 ft 584 kts 74°
2026-04-30 12:25 24.46280 44.19797 38947 ft 584 kts 80°
2026-04-30 12:26 24.47789 44.28553 38950 ft 584 kts 80°
2026-04-30 12:26 24.49309 44.37251 38954 ft 584 kts 80°
2026-04-30 12:27 24.50817 44.46018 38954 ft 584 kts 80°
2026-04-30 12:27 24.52329 44.54771 38951 ft 584 kts 80°
2026-04-30 12:28 24.53825 44.63495 38934 ft 572 kts 80°
2026-04-30 12:28 24.54543 44.67681 38885 ft 544 kts 80°
2026-04-30 12:28 24.55227 44.71672 38816 ft 518 kts 80°
2026-04-30 12:29 24.55865 44.75419 38743 ft 494 kts 81°
2026-04-30 12:29 24.56483 44.79050 38658 ft 473 kts 81°
2026-04-30 12:29 24.57076 44.82536 38151 ft 461 kts 81°
2026-04-30 12:29 24.57679 44.86096 36195 ft 488 kts 81°
2026-04-30 12:30 24.58315 44.89862 34425 ft 513 kts 81°
2026-04-30 12:30 24.58975 44.93744 33019 ft 519 kts 81°
2026-04-30 12:30 24.59636 44.97637 31738 ft 519 kts 81°
2026-04-30 12:30 24.60293 45.01531 30482 ft 517 kts 81°
2026-04-30 12:31 24.60944 45.05413 29002 ft 516 kts 81°
2026-04-30 12:31 24.61587 45.09275 27452 ft 512 kts 81°
2026-04-30 12:31 24.62212 45.13052 25908 ft 507 kts 81°
2026-04-30 12:31 24.62838 45.16849 24473 ft 501 kts 80°
2026-04-30 12:32 24.63479 45.20545 23311 ft 486 kts 79°
2026-04-30 12:32 24.64098 45.24152 21897 ft 475 kts 80°
2026-04-30 12:32 24.64672 45.27662 21148 ft 454 kts 81°
2026-04-30 12:32 24.65221 45.31016 20039 ft 443 kts 81°
2026-04-30 12:33 24.65776 45.34323 19034 ft 435 kts 80°
2026-04-30 12:33 24.66318 45.37558 18240 ft 424 kts 81°
2026-04-30 12:33 24.66844 45.40739 17957 ft 427 kts 81°
2026-04-30 12:33 24.67362 45.43888 17968 ft 418 kts 81°
2026-04-30 12:34 24.67871 45.46956 17901 ft 399 kts 81°
2026-04-30 12:34 24.68366 45.49945 17266 ft 397 kts 81°
2026-04-30 12:34 24.68854 45.52911 16746 ft 392 kts 81°
2026-04-30 12:34 24.69337 45.55845 16218 ft 387 kts 81°
2026-04-30 12:35 24.69811 45.58722 15996 ft 376 kts 81°
2026-04-30 12:35 24.70274 45.61537 15902 ft 375 kts 81°
2026-04-30 12:35 24.70734 45.64343 15192 ft 379 kts 81°
2026-04-30 12:35 24.71196 45.67155 15001 ft 368 kts 81°
2026-04-30 12:36 24.71843 45.69873 15000 ft 371 kts 76°
2026-04-30 12:36 24.72448 45.72661 15004 ft 377 kts 79°
2026-04-30 12:36 24.73054 45.75455 15010 ft 370 kts 74°
2026-04-30 12:36 24.74198 45.77881 15011 ft 349 kts 50°
2026-04-30 12:37 24.75801 45.79758 14970 ft 321 kts 41°
2026-04-30 12:37 24.77394 45.81435 14993 ft 323 kts 44°
2026-04-30 12:37 24.78911 45.83269 14812 ft 332 kts 49°
2026-04-30 12:37 24.80333 45.85220 14399 ft 320 kts 51°
2026-04-30 12:38 24.81738 45.87106 13992 ft 319 kts 49°
2026-04-30 12:38 24.83218 45.88987 13550 ft 326 kts 48°
2026-04-30 12:38 24.84699 45.90871 13072 ft 324 kts 49°
2026-04-30 12:38 24.86154 45.92760 12598 ft 322 kts 49°
2026-04-30 12:39 24.87594 45.94635 12084 ft 316 kts 49°
2026-04-30 12:39 24.88987 45.96436 11539 ft 303 kts 49°
2026-04-30 12:39 24.90311 45.98146 10981 ft 292 kts 50°
2026-04-30 12:39 24.91611 45.99830 10456 ft 286 kts 50°
2026-04-30 12:40 24.92882 46.01477 9977 ft 278 kts 50°
2026-04-30 12:40 24.94127 46.03091 9491 ft 274 kts 50°
2026-04-30 12:40 24.95300 46.04610 9278 ft 249 kts 50°
2026-04-30 12:40 24.96415 46.06055 8624 ft 247 kts 51°
2026-04-30 12:41 24.97525 46.07497 8294 ft 242 kts 51°
2026-04-30 12:41 24.98613 46.08910 7921 ft 241 kts 51°
2026-04-30 12:41 24.99690 46.10307 7568 ft 238 kts 51°
2026-04-30 12:41 25.00740 46.11670 7223 ft 235 kts 51°
2026-04-30 12:42 25.01789 46.13032 6907 ft 231 kts 52°
2026-04-30 12:42 25.02820 46.14372 6571 ft 228 kts 52°
2026-04-30 12:42 25.03841 46.15698 6279 ft 225 kts 52°
2026-04-30 12:42 25.04839 46.16996 6025 ft 217 kts 52°
2026-04-30 12:43 25.05812 46.18263 6014 ft 219 kts 52°
2026-04-30 12:43 25.06808 46.19559 6028 ft 224 kts 52°
2026-04-30 12:43 25.07811 46.20863 6019 ft 221 kts 52°
2026-04-30 12:43 25.08780 46.22176 6013 ft 219 kts 57°
2026-04-30 12:44 25.09542 46.23594 6006 ft 214 kts 63°
2026-04-30 12:44 25.10248 46.25006 5985 ft 209 kts 63°
2026-04-30 12:44 25.10942 46.26402 6012 ft 205 kts 63°
2026-04-30 12:44 25.11619 46.27764 6015 ft 200 kts 64°
2026-04-30 12:45 25.12291 46.29111 6009 ft 198 kts 63°
2026-04-30 12:45 25.12948 46.30435 6023 ft 197 kts 63°
2026-04-30 12:45 25.13613 46.31770 6018 ft 201 kts 63°
2026-04-30 12:45 25.14282 46.33100 6029 ft 201 kts 63°
2026-04-30 12:46 25.14960 46.34454 6017 ft 202 kts 63°
2026-04-30 12:46 25.15633 46.35800 6016 ft 200 kts 63°
2026-04-30 12:46 25.16303 46.37147 6017 ft 202 kts 63°
2026-04-30 12:46 25.16973 46.38495 6017 ft 200 kts 63°
2026-04-30 12:47 25.17641 46.39841 6021 ft 199 kts 63°
2026-04-30 12:47 25.18301 46.41181 6021 ft 198 kts 63°
2026-04-30 12:47 25.18959 46.42514 6023 ft 199 kts 63°
2026-04-30 12:47 25.19622 46.43859 6017 ft 199 kts 63°
2026-04-30 12:48 25.20272 46.45181 6015 ft 199 kts 63°
2026-04-30 12:48 25.20896 46.46544 5990 ft 198 kts 70°
2026-04-30 12:48 25.20786 46.48009 5980 ft 197 kts 112°
2026-04-30 12:48 25.20047 46.49288 6009 ft 198 kts 123°
2026-04-30 12:49 25.19263 46.50542 6020 ft 195 kts 123°
2026-04-30 12:49 25.18536 46.51700 5984 ft 177 kts 124°
2026-04-30 12:49 25.17816 46.52766 6007 ft 168 kts 126°
2026-04-30 12:49 25.17053 46.53738 5998 ft 167 kts 131°
2026-04-30 12:50 25.16220 46.54631 5999 ft 166 kts 136°
2026-04-30 12:50 25.15464 46.55575 6001 ft 169 kts 129°
2026-04-30 12:50 25.14493 46.56372 5823 ft 176 kts 146°
2026-04-30 12:50 25.13451 46.57076 5608 ft 174 kts 147°
2026-04-30 12:51 25.12412 46.57746 5390 ft 171 kts 148°
2026-04-30 12:51 25.11429 46.58369 5168 ft 154 kts 148°
2026-04-30 12:51 25.10529 46.58933 4972 ft 147 kts 147°
2026-04-30 12:51 25.09644 46.59508 4800 ft 147 kts 146°
2026-04-30 12:52 25.08775 46.60061 4618 ft 147 kts 146°
2026-04-30 12:52 25.07877 46.60630 4416 ft 146 kts 147°
2026-04-30 12:52 25.07010 46.61183 4252 ft 146 kts 146°
2026-04-30 12:52 25.06123 46.61748 4054 ft 146 kts 146°
2026-04-30 12:53 25.05244 46.62307 3871 ft 145 kts 146°
2026-04-30 12:53 25.04373 46.62858 3704 ft 145 kts 146°
2026-04-30 12:53 25.03494 46.63418 3510 ft 146 kts 146°
2026-04-30 12:53 25.02623 46.63971 3349 ft 143 kts 146°
2026-04-30 12:54 25.01751 46.64529 3151 ft 146 kts 146°
2026-04-30 12:54 25.00885 46.65078 2948 ft 147 kts 146°
2026-04-30 12:54 25.00000 46.65637 2737 ft 146 kts 147°
2026-04-30 12:54 24.99125 46.66196 2492 ft 143 kts 147°
2026-04-30 12:55 24.98262 46.66749 2317 ft 143 kts 148°
2026-04-30 12:55 24.97406 46.67290 2145 ft 141 kts 147°
2026-04-30 12:55 24.96600 46.67816 2078 ft 118 kts 151°
2026-04-30 12:55 24.96025 46.68167 2079 ft 77 kts 150°
2026-04-30 12:56 24.95678 46.68388 2080 ft 42 kts 149°
2026-04-30 12:56 24.95517 46.68570 2080 ft 19 kts 117°
2026-04-30 12:56 24.95499 46.68637 2082 ft 6 kts 92°
2026-04-30 12:56 24.95498 46.68646 2082 ft 0 kts 92°
2026-04-30 12:57 24.95497 46.68649 2082 ft 1 kts 99°
2026-04-30 12:58 24.95495 46.68668 2081 ft 4 kts 100°
2026-04-30 12:58 24.95493 46.68707 2079 ft 6 kts 86°
2026-04-30 12:58 24.95508 46.68759 2080 ft 8 kts 65°
2026-04-30 12:58 24.95509 46.68820 2082 ft 7 kts 119°
2026-04-30 12:59 24.95468 46.68858 2079 ft 9 kts 147°
2026-04-30 12:59 24.95406 46.68899 2080 ft 12 kts 149°
2026-04-30 12:59 24.95330 46.68949 2079 ft 14 kts 149°
2026-04-30 12:59 24.95238 46.69006 2079 ft 16 kts 150°
2026-04-30 13:00 24.95133 46.69073 2079 ft 18 kts 150°
2026-04-30 13:00 24.95016 46.69146 2077 ft 20 kts 150°
2026-04-30 13:00 24.94888 46.69228 2077 ft 22 kts 149°
2026-04-30 13:00 24.94751 46.69316 2080 ft 24 kts 150°
2026-04-30 13:01 24.94607 46.69405 2078 ft 21 kts 150°
2026-04-30 13:01 24.94517 46.69473 2078 ft 12 kts 122°
2026-04-30 13:01 24.94520 46.69527 2079 ft 8 kts 62°
2026-04-30 13:01 24.94565 46.69615 2079 ft 19 kts 60°
2026-04-30 13:02 24.94648 46.69771 2081 ft 29 kts 59°
2026-04-30 13:02 24.94766 46.69991 2080 ft 38 kts 60°
2026-04-30 13:02 24.94892 46.70234 2080 ft 35 kts 60°
2026-04-30 13:02 24.95011 46.70458 2081 ft 33 kts 60°
2026-04-30 13:03 24.95124 46.70671 2080 ft 31 kts 59°
2026-04-30 13:03 24.95232 46.70874 2081 ft 30 kts 59°
2026-04-30 13:03 24.95315 46.71008 2080 ft 15 kts 28°
2026-04-30 13:03 24.95392 46.70991 2081 ft 11 kts 331°
2026-04-30 13:04 24.95466 46.70945 2080 ft 13 kts 330°
2026-04-30 13:04 24.95549 46.70892 2079 ft 15 kts 330°
2026-04-30 13:04 24.95643 46.70832 2080 ft 16 kts 330°
2026-04-30 13:04 24.95746 46.70767 2080 ft 18 kts 330°
2026-04-30 13:05 24.95816 46.70705 2078 ft 8 kts 294°
2026-04-30 13:05 24.95813 46.70673 2080 ft 4 kts 253°
2026-04-30 13:05 24.95810 46.70653 2080 ft 1 kts 281°
2026-04-30 13:06 24.95920 46.70630 2079 ft 14 kts
2026-04-30 13:06 24.95972 46.70620 2082 ft 14 kts 340°
2026-04-30 13:06 24.96054 46.70571 2079 ft 14 kts 322°
2026-04-30 13:06 24.96076 46.70500 2082 ft 5 kts 250°
2026-04-30 13:07 24.96070 46.70463 2080 ft 5 kts 273°
2026-04-30 13:07 24.96080 46.70427 2081 ft 6 kts 292°
2026-04-30 13:07 24.96100 46.70383 2079 ft 7 kts 298°
2026-04-30 13:07 24.96109 46.70365 2079 ft 0 kts 298°